Time,TemperatureF,DewpointF,PressureIn,WindDirection,WindDirectionDegrees,WindSpeedMPH,WindSpeedGustMPH,Humidity,HourlyPrecipIn,Conditions,Clouds,dailyrainin,SolarRadiationWatts/m^2,SoftwareType,DateUTC
2013-03-08 00:02:00,28.0,25.0,-100.00,NE,48,6.0,13.0,87,0.00,,,0.00,0.000000,,2013-03-08 06:02:00,
2013-03-08 00:32:00,28.0,25.0,-100.00,ENE,58,6.0,16.0,89,0.00,,,0.00,0.000000,,2013-03-08 06:32:00,
2013-03-08 00:42:00,28.0,25.0,-100.00,ENE,58,6.0,16.0,89,0.00,,,0.00,0.000000,,2013-03-08 06:42:00,
2013-03-08 00:52:00,28.0,25.0,-100.00,ENE,58,6.0,16.0,89,0.00,,,0.00,0.000000,,2013-03-08 06:52:00,
2013-03-08 01:01:00,28.0,25.0,-100.00,ENE,58,6.0,16.0,89,0.00,,,0.00,0.000000,,2013-03-08 07:01:00,
2013-03-08 01:32:00,27.0,25.0,-100.00,ENE,67,4.0,10.0,92,0.00,,,0.00,0.000000,,2013-03-08 07:32:00,
2013-03-08 01:42:00,27.0,25.0,-100.00,ENE,67,4.0,10.0,92,0.00,,,0.00,0.000000,,2013-03-08 07:42:00,
2013-03-08 01:52:00,27.0,25.0,-100.00,ENE,67,4.0,10.0,92,0.00,,,0.00,0.000000,,2013-03-08 07:52:00,
2013-03-08 02:01:00,27.0,25.0,-100.00,ENE,67,4.0,10.0,92,0.00,,,0.00,0.000000,,2013-03-08 08:01:00,
2013-03-08 02:32:00,27.0,26.0,-100.00,NE,54,6.0,10.0,94,0.00,,,0.00,0.000000,,2013-03-08 08:32:00,
2013-03-08 02:42:00,27.0,26.0,-100.00,NE,54,6.0,10.0,94,0.00,,,0.00,0.000000,,2013-03-08 08:42:00,
2013-03-08 02:52:00,27.0,26.0,-100.00,NE,54,6.0,10.0,94,0.00,,,0.00,0.000000,,2013-03-08 08:52:00,
2013-03-08 03:03:00,27.0,26.0,-100.00,NE,54,6.0,10.0,94,0.00,,,0.00,0.000000,,2013-03-08 09:03:00,
2013-03-08 03:32:00,27.0,24.0,-100.00,ENE,58,7.0,15.0,89,0.00,,,0.00,0.000000,,2013-03-08 09:32:00,
2013-03-08 03:42:00,27.0,24.0,-100.00,ENE,58,7.0,15.0,89,0.00,,,0.00,0.000000,,2013-03-08 09:42:00,
2013-03-08 03:52:00,27.0,24.0,-100.00,ENE,58,7.0,15.0,89,0.00,,,0.00,0.000000,,2013-03-08 09:52:00,
2013-03-08 04:01:00,27.0,24.0,-100.00,ENE,58,7.0,15.0,89,0.00,,,0.00,0.000000,,2013-03-08 10:01:00,
2013-03-08 04:32:00,27.0,24.0,-100.00,ENE,59,3.0,12.0,89,0.00,,,0.00,0.000000,,2013-03-08 10:32:00,
2013-03-08 04:42:00,27.0,24.0,-100.00,ENE,59,3.0,12.0,89,0.00,,,0.00,0.000000,,2013-03-08 10:42:00,
2013-03-08 04:52:00,27.0,24.0,-100.00,ENE,59,3.0,12.0,89,0.00,,,0.00,0.000000,,2013-03-08 10:52:00,
2013-03-08 05:01:00,27.0,24.0,-100.00,ENE,59,3.0,12.0,89,0.00,,,0.00,0.000000,,2013-03-08 11:01:00,
2013-03-08 05:32:00,26.0,23.0,-100.00,NE,35,3.0,10.0,90,0.00,,,0.00,0.000000,,2013-03-08 11:32:00,
2013-03-08 05:42:00,26.0,23.0,-100.00,NE,35,3.0,10.0,90,0.00,,,0.00,0.000000,,2013-03-08 11:42:00,
2013-03-08 05:52:00,26.0,23.0,-100.00,NE,35,3.0,10.0,90,0.00,,,0.00,0.000000,,2013-03-08 11:52:00,
2013-03-08 06:02:00,26.0,23.0,-100.00,NE,35,3.0,10.0,90,0.00,,,0.00,0.000000,,2013-03-08 12:02:00,
2013-03-08 06:32:00,26.0,23.0,-100.00,ENE,59,6.0,15.0,90,0.00,,,0.00,1.000000,,2013-03-08 12:32:00,
2013-03-08 06:43:00,26.0,23.0,-100.00,ENE,59,6.0,15.0,90,0.00,,,0.00,1.000000,,2013-03-08 12:43:00,
2013-03-08 06:53:00,26.0,23.0,-100.00,ENE,59,6.0,15.0,90,0.00,,,0.00,1.000000,,2013-03-08 12:53:00,
2013-03-08 07:02:00,26.0,23.0,-100.00,ENE,59,6.0,15.0,90,0.00,,,0.00,1.000000,,2013-03-08 13:02:00,
2013-03-08 07:33:00,30.0,24.0,-100.00,ENE,69,8.0,15.0,78,0.00,,,-99.99,77.000000,,2013-03-08 13:33:00,
2013-03-08 07:42:00,30.0,24.0,-100.00,ENE,69,8.0,15.0,78,0.00,,,-99.99,77.000000,,2013-03-08 13:42:00,
2013-03-08 07:52:00,30.0,24.0,-100.00,ENE,69,8.0,15.0,78,0.00,,,-99.99,77.000000,,2013-03-08 13:52:00,
2013-03-08 08:03:00,30.0,24.0,-100.00,ENE,69,8.0,15.0,78,0.00,,,-99.99,77.000000,,2013-03-08 14:03:00,
2013-03-08 08:33:00,34.0,25.0,-100.00,East,88,7.0,17.0,69,0.00,,,0.00,280.000000,,2013-03-08 14:33:00,
2013-03-08 08:42:00,34.0,25.0,-100.00,East,88,7.0,17.0,69,0.00,,,0.00,280.000000,,2013-03-08 14:42:00,
2013-03-08 08:53:00,34.0,25.0,-100.00,East,88,7.0,17.0,69,0.00,,,0.00,280.000000,,2013-03-08 14:53:00,
2013-03-08 09:03:00,34.0,25.0,-100.00,East,88,7.0,17.0,69,0.00,,,0.00,280.000000,,2013-03-08 15:03:00,
2013-03-08 09:32:00,39.0,23.0,-100.00,ENE,63,6.0,13.0,52,0.00,,,0.00,473.000000,,2013-03-08 15:32:00,
2013-03-08 09:43:00,39.0,23.0,-100.00,ENE,63,6.0,13.0,52,0.00,,,0.00,473.000000,,2013-03-08 15:43:00,
2013-03-08 09:53:00,39.0,23.0,-100.00,ENE,63,6.0,13.0,52,0.00,,,0.00,473.000000,,2013-03-08 15:53:00,
2013-03-08 10:02:00,39.0,23.0,-100.00,ENE,63,6.0,13.0,52,0.00,,,0.00,473.000000,,2013-03-08 16:02:00,
2013-03-08 10:32:00,44.0,26.0,-100.00,ESE,122,1.0,8.0,49,0.00,,,0.00,630.000000,,2013-03-08 16:32:00,
2013-03-08 10:42:00,44.0,26.0,-100.00,ESE,122,1.0,8.0,49,0.00,,,0.00,630.000000,,2013-03-08 16:42:00,
2013-03-08 10:52:00,44.0,26.0,-100.00,ESE,122,1.0,8.0,49,0.00,,,0.00,630.000000,,2013-03-08 16:52:00,
2013-03-08 11:03:00,44.0,26.0,-100.00,ESE,122,1.0,8.0,49,0.00,,,0.00,630.000000,,2013-03-08 17:03:00,
2013-03-08 11:32:00,47.0,25.0,-100.00,SE,127,3.0,9.0,42,0.00,,,0.00,731.000000,,2013-03-08 17:32:00,
2013-03-08 11:42:00,47.0,25.0,-100.00,SE,127,3.0,9.0,42,0.00,,,0.00,731.000000,,2013-03-08 17:42:00,
2013-03-08 11:52:00,47.0,25.0,-100.00,SE,127,3.0,9.0,42,0.00,,,0.00,731.000000,,2013-03-08 17:52:00,
2013-03-08 12:02:00,47.0,25.0,-100.00,SE,127,3.0,9.0,42,0.00,,,0.00,731.000000,,2013-03-08 18:02:00,
2013-03-08 12:32:00,50.0,21.0,-100.00,SE,146,5.0,10.0,32,0.00,,,0.00,772.000000,,2013-03-08 18:32:00,
2013-03-08 12:42:00,50.0,21.0,-100.00,SE,146,5.0,10.0,32,0.00,,,0.00,772.000000,,2013-03-08 18:42:00,
2013-03-08 12:52:00,50.0,21.0,-100.00,SE,146,5.0,10.0,32,0.00,,,0.00,772.000000,,2013-03-08 18:52:00,
2013-03-08 13:01:00,50.0,21.0,-100.00,SE,146,5.0,10.0,32,0.00,,,0.00,772.000000,,2013-03-08 19:01:00,
2013-03-08 13:32:00,52.0,22.0,-100.00,ESE,115,5.0,11.0,31,0.00,,,0.00,749.000000,,2013-03-08 19:32:00,
2013-03-08 13:42:00,52.0,22.0,-100.00,ESE,115,5.0,11.0,31,0.00,,,0.00,749.000000,,2013-03-08 19:42:00,
2013-03-08 13:52:00,52.0,22.0,-100.00,ESE,115,5.0,11.0,31,0.00,,,0.00,749.000000,,2013-03-08 19:52:00,
2013-03-08 14:01:00,52.0,22.0,-100.00,ESE,115,5.0,11.0,31,0.00,,,0.00,749.000000,,2013-03-08 20:01:00,
2013-03-08 14:32:00,53.0,20.0,-100.00,SE,125,6.0,11.0,27,0.00,,,0.00,678.000000,,2013-03-08 20:32:00,
2013-03-08 14:42:00,53.0,20.0,-100.00,SE,125,6.0,11.0,27,0.00,,,0.00,678.000000,,2013-03-08 20:42:00,
2013-03-08 14:53:00,53.0,20.0,-100.00,SE,125,6.0,11.0,27,0.00,,,0.00,678.000000,,2013-03-08 20:53:00,
2013-03-08 15:02:00,53.0,20.0,-100.00,SE,125,6.0,11.0,27,0.00,,,0.00,678.000000,,2013-03-08 21:02:00,
2013-03-08 15:33:00,54.0,18.0,-100.00,SSE,168,5.0,11.0,24,0.00,,,0.00,545.000000,,2013-03-08 21:33:00,
2013-03-08 15:42:00,54.0,18.0,-100.00,SSE,168,5.0,11.0,24,0.00,,,0.00,545.000000,,2013-03-08 21:42:00,
2013-03-08 15:52:00,54.0,18.0,-100.00,SSE,168,5.0,11.0,24,0.00,,,0.00,545.000000,,2013-03-08 21:52:00,
2013-03-08 16:01:00,54.0,18.0,-100.00,SSE,168,5.0,11.0,24,0.00,,,0.00,545.000000,,2013-03-08 22:01:00,
2013-03-08 16:32:00,52.0,15.0,-100.00,SE,133,8.0,13.0,23,0.00,,,0.00,368.000000,,2013-03-08 22:32:00,
2013-03-08 16:42:00,52.0,15.0,-100.00,SE,133,8.0,13.0,23,0.00,,,0.00,368.000000,,2013-03-08 22:42:00,
2013-03-08 16:53:00,52.0,15.0,-100.00,SE,133,8.0,13.0,23,0.00,,,0.00,368.000000,,2013-03-08 22:53:00,
2013-03-08 17:02:00,52.0,15.0,-100.00,SE,133,8.0,13.0,23,0.00,,,0.00,368.000000,,2013-03-08 23:02:00,
2013-03-08 17:32:00,50.0,19.0,-100.00,SE,124,7.0,12.0,29,0.00,,,0.00,171.000000,,2013-03-08 23:32:00,
2013-03-08 17:42:00,50.0,19.0,-100.00,SE,124,7.0,12.0,29,0.00,,,0.00,171.000000,,2013-03-08 23:42:00,
2013-03-08 17:53:00,50.0,19.0,-100.00,SE,124,7.0,12.0,29,0.00,,,0.00,171.000000,,2013-03-08 23:53:00,
2013-03-08 18:02:00,50.0,19.0,-100.00,SE,124,7.0,12.0,29,0.00,,,0.00,171.000000,,2013-03-09 00:02:00,
2013-03-08 18:32:00,47.0,20.0,-100.00,East,101,3.0,13.0,34,0.00,,,0.00,16.000000,,2013-03-09 00:32:00,
2013-03-08 18:42:00,47.0,20.0,-100.00,East,101,3.0,13.0,34,0.00,,,0.00,16.000000,,2013-03-09 00:42:00,
2013-03-08 18:52:00,47.0,20.0,-100.00,East,101,3.0,13.0,34,0.00,,,0.00,16.000000,,2013-03-09 00:52:00,
2013-03-08 19:02:00,47.0,20.0,-100.00,East,101,3.0,13.0,34,0.00,,,0.00,16.000000,,2013-03-09 01:02:00,
2013-03-08 21:32:00,43.0,21.0,-100.00,ENE,66,4.0,10.0,41,-99.99,,,0.00,0.000000,,2013-03-09 03:32:00,
2013-03-08 21:42:00,43.0,21.0,-100.00,ENE,66,4.0,10.0,41,-99.99,,,0.00,0.000000,,2013-03-09 03:42:00,
2013-03-08 21:52:00,43.0,21.0,-100.00,ENE,66,4.0,10.0,41,-99.99,,,0.00,0.000000,,2013-03-09 03:52:00,
2013-03-08 22:01:00,43.0,21.0,-100.00,ENE,66,4.0,10.0,41,-99.99,,,0.00,0.000000,,2013-03-09 04:01:00,
2013-03-08 22:32:00,42.0,22.0,-100.00,ENE,72,4.0,9.0,44,0.00,,,0.00,0.000000,,2013-03-09 04:32:00,
2013-03-08 22:42:00,42.0,22.0,-100.00,ENE,72,4.0,9.0,44,0.00,,,0.00,0.000000,,2013-03-09 04:42:00,
2013-03-08 22:52:00,42.0,22.0,-100.00,ENE,72,4.0,9.0,44,0.00,,,0.00,0.000000,,2013-03-09 04:52:00,
2013-03-08 23:03:00,42.0,22.0,-100.00,ENE,72,4.0,9.0,44,0.00,,,0.00,0.000000,,2013-03-09 05:03:00,
2013-03-08 23:32:00,41.0,22.0,-100.00,ENE,75,6.0,12.0,46,0.00,,,0.00,0.000000,,2013-03-09 05:32:00,
2013-03-08 23:43:00,41.0,22.0,-100.00,ENE,75,6.0,12.0,46,0.00,,,0.00,0.000000,,2013-03-09 05:43:00,
2013-03-08 23:53:00,41.0,22.0,-100.00,ENE,75,6.0,12.0,46,0.00,,,0.00,0.000000,,2013-03-09 05:53:00,